EW0446 Weather Reports


time (UTC)temp
C
wind
direction
speed
KPH
gust
KPH
rain 1hr
cm
rain 24hr
cm
rain mn
cm
humidity
%
barometer
mb
20260507224530 23 212 19.3 29.0 0.00 0.00 0.00 30 1007.3
20260507223027 23 351 20.9 33.8 0.00 0.00 0.00 30 1007.5
20260507221525 23 227 20.9 35.4 0.00 0.00 0.00 30 1007.6
20260507220022 23 248 12.9 32.2 0.00 0.00 0.00 30 1007.7
20260507214524 23 254 17.7 33.8 0.00 0.00 0.00 29 1007.9
20260507213020 23 194 19.3 32.2 0.00 0.00 0.00 30 1008.2
20260507211516 22 198 19.3 37.0 0.00 0.00 0.00 29 1008.3
20260507210013 22 206 20.9 37.0 0.00 0.00 0.00 30 1008.7
20260507204510 22 188 12.9 29.0 0.00 0.00 0.00 31 1008.8
20260507203010 22 235 19.3 35.4 0.00 0.00 0.00 32 1009.2
20260507201505 21 214 19.3 40.2 0.00 0.00 0.00 33 1009.6
20260507200001 21 245 24.1 40.2 0.00 0.00 0.00 33 1009.7
20260507194604 21 208 25.7 38.6 0.00 0.00 0.00 33 1009.9
20260507193058 21 185 24.1 38.6 0.00 0.00 0.00 35 1009.9
20260507191556 21 198 24.1 38.6 0.00 0.00 0.00 36 1010.2
20260507190054 20 235 24.1 37.0 0.00 0.00 0.00 34 1010.1
20260507184554 20 216 29.0 40.2 0.00 0.00 0.00 35 1010.3
20260507183050 20 189 24.1 37.0 0.00 0.00 0.00 37 1010.6
20260507181547 19 208 25.7 41.8 0.00 0.00 0.00 38 1010.9
20260507180048 18 193 29.0 40.2 0.00 0.00 0.00 38 1011.2
20260507174550 18 351 24.1 35.4 0.00 0.00 0.00 40 1011.5
20260507173045 18 173 27.4 43.5 0.00 0.00 0.00 41 1011.9
20260507171550 18 194 25.7 33.8 0.00 0.00 0.00 41 1012.1
20260507170035 18 217 19.3 33.8 0.00 0.00 0.00 41 1012.4
20260507164533 17 178 29.0 40.2 0.00 0.00 0.00 43 1012.4
20260507163030 17 222 22.5 38.6 0.00 0.00 0.00 43 1012.8
20260507161528 17 207 24.1 38.6 0.00 0.00 0.00 44 1012.9
20260507160026 16 233 19.3 38.6 0.00 0.00 0.00 45 1013.1
20260507154524 16 200 25.7 41.8 0.00 0.00 0.00 46 1013.2
20260507153022 16 221 27.4 38.6 0.00 0.00 0.00 47 1013.3
20260507151519 15 220 25.7 37.0 0.00 0.00 0.00 49 1013.5
20260507150016 15 233 22.5 32.2 0.00 0.00 0.00 52 1013.7
20260507144515 14 231 20.9 40.2 0.00 0.00 0.00 55 1014.2
20260507143010 13 218 22.5 30.6 0.00 0.00 0.00 56 1014.6
20260507141507 13 231 22.5 32.2 0.00 0.00 0.00 59 1014.7
20260507140006 12 351 16.1 27.4 0.00 0.00 0.00 62 1014.3
20260507134502 12 237 20.9 30.6 0.00 0.00 0.00 63 1014.3
20260507133059 11 351 14.5 25.7 0.00 0.00 0.00 68 1014.4
20260507131554 10 227 9.7 22.5 0.00 0.00 0.00 73 1014.4
20260507130055 10 204 9.7 17.7 0.00 0.00 0.00 76 1014.5
20260507124546 8 198 11.3 17.7 0.00 0.00 0.00 78 1014.5
20260507123049 8 196 11.3 19.3 0.00 0.00 0.00 79 1014.5
20260507121546 7 194 11.3 14.5 0.00 0.00 0.00 80 1014.4
20260507120046 7 183 9.7 16.1 0.00 0.00 0.00 80 1014.5
20260507114544 7 196 9.7 16.1 0.00 0.00 0.00 81 1014.5
20260507113042 7 216 11.3 14.5 0.00 0.00 0.00 81 1014.4
20260507111547 7 214 8.0 14.5 0.00 0.00 0.00 80 1014.4
20260507110039 7 212 8.0 14.5 0.00 0.00 0.00 80 1014.5
20260507104539 7 203 9.7 16.1 0.00 0.00 0.00 79 1014.5
20260507103041 7 196 11.3 17.7 0.00 0.00 0.00 78 1014.5
20260507101545 7 195 9.7 14.5 0.00 0.00 0.00 78 1014.6
20260507100041 7 197 9.7 12.9 0.00 0.00 0.00 78 1014.6
20260507094542 7 184 8.0 9.7 0.00 0.00 0.00 77 1014.7
20260507093035 7 184 6.4 9.7 0.00 0.00 0.00 76 1014.9
20260507091531 7 190 4.8 9.7 0.00 0.00 0.00 75 1014.9
20260507090034 7 198 9.7 12.9 0.00 0.00 0.00 75 1015.0
20260507084534 7 188 6.4 8.0 0.00 0.00 0.00 74 1015.2
20260507083024 7 190 3.2 6.4 0.00 0.00 0.00 73 1015.4
20260507081525 7 189 1.6 4.8 0.00 0.00 0.00 72 1015.5
20260507080020 7 189 3.2 6.4 0.00 0.00 0.00 71 1015.5
20260507074518 7 189 4.8 6.4 0.00 0.00 0.00 70 1015.6
20260507073016 7 187 3.2 6.4 0.00 0.00 0.00 69 1015.7
20260507071514 8 187 4.8 8.0 0.00 0.00 0.00 66 1015.8
20260507070018 8 204 4.8 12.9 0.00 0.00 0.00 64 1016.0
20260507064511 8 214 6.4 12.9 0.00 0.00 0.00 64 1016.3
20260507063010 8 208 4.8 11.3 0.00 0.00 0.00 64 1016.3
20260507061508 7 202 4.8 8.0 0.00 0.00 0.00 63 1016.3
20260507060006 7 192 4.8 8.0 0.00 0.00 0.00 62 1016.4
20260507054503 7 191 4.8 8.0 0.00 0.00 0.00 60 1016.5
20260507053110 8 175 6.4 12.9 0.00 0.00 0.00 58 1016.5
20260507051559 8 188 9.7 12.9 0.00 0.00 0.00 57 1016.5
20260507050056 8 175 6.4 11.3 0.00 0.00 0.00 56 1016.4
20260507044600 8 169 6.4 9.7 0.00 0.00 0.00 56 1016.4
20260507043058 9 178 6.4 9.7 0.00 0.00 0.00 55 1016.4
20260507041559 9 177 4.8 9.7 0.00 0.00 0.00 54 1016.5
20260507040054 9 182 3.2 6.4 0.00 0.00 0.00 53 1016.5
20260507034605 9 183 4.8 8.0 0.00 0.00 0.00 53 1016.6
20260507033055 9 248 3.2 6.4 0.00 0.00 0.00 51 1016.7
20260507031553 10 291 3.2 4.8 0.00 0.00 0.00 49 1016.7
20260507030100 10 291 3.2 4.8 0.00 0.00 0.00 47 1016.6
20260507024556 10 291 1.6 4.8 0.00 0.00 0.00 44 1016.6
20260507023053 11 291 4.8 6.4 0.00 0.00 0.00 43 1016.4
20260507021551 11 291 3.2 4.8 0.00 0.00 0.00 41 1016.3
20260507020052 11 291 1.6 3.2 0.00 0.00 0.00 39 1016.3
20260507014553 12 291 0.0 1.6 0.00 0.00 0.00 36 1016.1
20260507013058 13 291 0.0 3.2 0.00 0.00 0.00 35 1016.1
20260507011550 13 291 1.6 3.2 0.00 0.00 0.00 34 1016.0
20260507010049 14 291 3.2 8.0 0.00 0.00 0.00 33 1016.0
20260507004548 15 266 6.4 14.5 0.00 0.00 0.00 32 1016.1
20260507003047 15 283 4.8 16.1 0.00 0.00 0.00 32 1016.0
20260507001548 15 285 4.8 12.9 0.00 0.00 0.00 33 1016.0
20260507000052 15 273 6.4 12.9 0.00 0.00 0.00 31 1016.1
20260506234553 15 254 6.4 17.7 0.00 0.00 0.00 31 1016.2
20260506233046 15 284 9.7 16.1 0.00 0.00 0.00 32 1016.3
20260506231546 15 292 12.9 27.4 0.00 0.00 0.00 31 1016.3
20260506230044 16 286 9.7 22.5 0.00 0.00 0.00 32 1016.4